• In Russia
  • List of Countries
  • For 7 days
  • Water Temperature
  • Weather Map
  • Weather Widgets
  • user-avatar
    Login

    Hourly Weather Vanadzor

    Today, 22 January, Wednesday

    Time Temperature Precipitation Wind Pressure Humidity
    00:00 -7°C° 0 mm 1 mps 636 mmHg 73%
    01:00 -7°C° 0 mm 1 mps 636 mmHg 73%
    02:00 -8°C° 0 mm 1 mps 636 mmHg 74%
    03:00 -8°C° 0 mm 1 mps 635 mmHg 74%
    04:00 -8°C° 0 mm 1 mps 635 mmHg 74%
    05:00 -8°C° 0 mm 1 mps 635 mmHg 74%
    06:00 -10°C° 0 mm 2 mps 635 mmHg 73%
    07:00 -9°C° 0 mm 2 mps 635 mmHg 72%
    08:00 -8°C° 0 mm 2 mps 635 mmHg 71%
    09:00 -8°C° 0 mm 2 mps 635 mmHg 69%
    10:00 -6°C° 0 mm 2 mps 635 mmHg 66%
    11:00 -5°C° 0 mm 2 mps 635 mmHg 63%
    12:00 -4°C° 0 mm 2 mps 635 mmHg 60%
    13:00 -4°C° 0 mm 2 mps 635 mmHg 61%
    14:00 -2°C° 0 mm 1 mps 634 mmHg 62%
    15:00 -1°C° 0 mm 1 mps 634 mmHg 62%
    16:00 -5°C° 0 mm 2 mps 634 mmHg 64%
    17:00 -6°C° 0 mm 2 mps 633 mmHg 66%
    18:00 -7°C° 0 mm 2 mps 633 mmHg 68%
    19:00 -7°C° 0 mm 2 mps 633 mmHg 68%
    20:00 -8°C° 0 mm 2 mps 633 mmHg 69%
    21:00 -8°C° 0 mm 2 mps 632 mmHg 70%
    22:00 -8°C° 0 mm 2 mps 632 mmHg 71%
    23:00 -8°C° 0 mm 2 mps 632 mmHg 72%

    Tomorrow, 23 January, Thursday

    Time Temperature Precipitation Wind Pressure Humidity
    00:00 -9°C° 0 mm 2 mps 631 mmHg 73%
    01:00 -9°C° 0 mm 2 mps 631 mmHg 73%
    02:00 -9°C° 0 mm 2 mps 631 mmHg 73%
    03:00 -9°C° 0 mm 2 mps 630 mmHg 73%
    04:00 -9°C° 0 mm 2 mps 630 mmHg 74%
    05:00 -10°C° 0 mm 3 mps 629 mmHg 74%
    06:00 -12°C° 0 mm 3 mps 628 mmHg 75%
    07:00 -10°C° 0 mm 3 mps 629 mmHg 74%
    08:00 -9°C° 0 mm 3 mps 629 mmHg 73%
    09:00 -8°C° 0 mm 3 mps 629 mmHg 73%
    10:00 -7°C° 0 mm 3 mps 628 mmHg 71%
    11:00 -6°C° 0 mm 3 mps 628 mmHg 68%
    12:00 -5°C° 0 mm 3 mps 628 mmHg 66%
    13:00 -5°C° 0 mm 3 mps 628 mmHg 68%
    14:00 -5°C° 0 mm 3 mps 627 mmHg 69%
    15:00 -4°C° 0 mm 2 mps 627 mmHg 70%
    16:00 -5°C° 0 mm 2 mps 627 mmHg 74%
    17:00 -6°C° 0 mm 2 mps 627 mmHg 78%
    18:00 -6°C° 0 mm 2 mps 627 mmHg 81%
    19:00 -7°C° 0 mm 2 mps 627 mmHg 82%
    20:00 -7°C° 0 mm 2 mps 627 mmHg 82%
    21:00 -7°C° 0 mm 2 mps 627 mmHg 82%
    22:00 -7°C° 0 mm 2 mps 628 mmHg 82%
    23:00 -7°C° 0 mm 2 mps 628 mmHg 83%

    Day after tomorrow, 24 January, Friday

    Time Temperature Precipitation Wind Pressure Humidity
    00:00 -7°C° 0 mm 2 mps 628 mmHg 83%
    01:00 -8°C° 0 mm 2 mps 628 mmHg 83%
    02:00 -8°C° 0 mm 2 mps 628 mmHg 83%
    03:00 -7°C° 0 mm 1 mps 628 mmHg 84%
    04:00 -8°C° 0 mm 2 mps 629 mmHg 80%
    05:00 -8°C° 0 mm 2 mps 629 mmHg 77%
    06:00 -8°C° 0 mm 2 mps 629 mmHg 74%
    07:00 -8°C° 0 mm 2 mps 630 mmHg 72%
    08:00 -8°C° 0 mm 2 mps 630 mmHg 71%
    09:00 -8°C° 0 mm 2 mps 631 mmHg 70%
    10:00 -7°C° 0 mm 2 mps 631 mmHg 65%
    11:00 -7°C° 0 mm 3 mps 632 mmHg 61%
    12:00 -7°C° 0 mm 3 mps 632 mmHg 56%
    13:00 -7°C° 0 mm 3 mps 632 mmHg 56%
    14:00 -7°C° 0 mm 3 mps 632 mmHg 55%
    15:00 -7°C° 0 mm 3 mps 632 mmHg 55%
    16:00 -9°C° 0 mm 3 mps 632 mmHg 57%
    17:00 -9°C° 0 mm 2 mps 632 mmHg 59%
    18:00 -10°C° 0 mm 2 mps 633 mmHg 62%
    19:00 -12°C° 0 mm 2 mps 633 mmHg 63%
    20:00 -12°C° 0 mm 2 mps 634 mmHg 65%
    21:00 -12°C° 0 mm 2 mps 635 mmHg 67%
    22:00 -13°C° 0 mm 2 mps 635 mmHg 67%
    23:00 -13°C° 0 mm 2 mps 636 mmHg 68%

    25 January, Saturday

    Time Temperature Precipitation Wind Pressure Humidity
    00:00 -13°C° 0 mm 2 mps 636 mmHg 68%
    01:00 -13°C° 0 mm 2 mps 636 mmHg 67%
    02:00 -14°C° 0 mm 2 mps 636 mmHg 67%
    03:00 -14°C° 0 mm 2 mps 636 mmHg 66%
    04:00 -14°C° 0 mm 2 mps 636 mmHg 64%
    05:00 -14°C° 0 mm 2 mps 636 mmHg 62%
    06:00 -14°C° 0 mm 2 mps 636 mmHg 59%
    07:00 -13°C° 0 mm 2 mps 637 mmHg 59%
    08:00 -10°C° 0 mm 1 mps 638 mmHg 58%
    09:00 -9°C° 0 mm 1 mps 638 mmHg 58%
    10:00 -8°C° 0 mm 1 mps 638 mmHg 55%
    11:00 -6°C° 0 mm 1 mps 638 mmHg 53%
    12:00 -4°C° 0 mm 1 mps 638 mmHg 50%
    13:00 -4°C° 0 mm 1 mps 638 mmHg 52%
    14:00 -3°C° 0 mm 1 mps 638 mmHg 54%
    15:00 -3°C° 0 mm 1 mps 637 mmHg 55%
    16:00 -6°C° 0 mm 2 mps 637 mmHg 57%
    17:00 -8°C° 0 mm 2 mps 637 mmHg 58%
    18:00 -9°C° 0 mm 2 mps 636 mmHg 60%
    19:00 -9°C° 0 mm 2 mps 636 mmHg 59%
    20:00 -9°C° 0 mm 2 mps 636 mmHg 59%
    21:00 -10°C° 0 mm 3 mps 636 mmHg 58%
    22:00 -10°C° 0 mm 3 mps 636 mmHg 59%
    23:00 -10°C° 0 mm 3 mps 636 mmHg 59%

    26 January, Sunday

    Time Temperature Precipitation Wind Pressure Humidity
    00:00 -10°C° 0 mm 3 mps 635 mmHg 60%
    01:00 -10°C° 0 mm 3 mps 635 mmHg 60%
    02:00 -10°C° 0 mm 3 mps 635 mmHg 61%
    03:00 -10°C° 0 mm 3 mps 635 mmHg 61%
    04:00 -10°C° 0 mm 3 mps 635 mmHg 61%
    05:00 -10°C° 0 mm 3 mps 635 mmHg 62%
    06:00 -10°C° 0 mm 3 mps 635 mmHg 62%
    07:00 -9°C° 0 mm 3 mps 635 mmHg 62%
    08:00 -8°C° 0 mm 3 mps 636 mmHg 62%
    09:00 -7°C° 0 mm 3 mps 636 mmHg 62%
    10:00 -6°C° 0 mm 3 mps 636 mmHg 59%
    11:00 -4°C° 0 mm 3 mps 636 mmHg 55%
    12:00 -2°C° 0 mm 3 mps 636 mmHg 52%
    13:00 -2°C° 0 mm 3 mps 636 mmHg 52%
    14:00 -2°C° 0 mm 3 mps 636 mmHg 52%
    15:00 -2°C° 0 mm 3 mps 636 mmHg 52%
    16:00 -4°C° 0 mm 3 mps 636 mmHg 54%
    17:00 -6°C° 0 mm 3 mps 635 mmHg 55%
    18:00 -7°C° 0 mm 3 mps 635 mmHg 57%
    19:00 -8°C° 0 mm 3 mps 635 mmHg 58%
    20:00 -8°C° 0 mm 3 mps 635 mmHg 59%
    21:00 -8°C° 0 mm 3 mps 635 mmHg 60%
    22:00 -8°C° 0 mm 3 mps 635 mmHg 60%
    23:00 -8°C° 0 mm 3 mps 636 mmHg 61%

    27 January, Monday

    Time Temperature Precipitation Wind Pressure Humidity
    00:00 -8°C° 0 mm 3 mps 636 mmHg 62%
    01:00 -9°C° 0 mm 3 mps 636 mmHg 61%
    02:00 -8°C° 0 mm 2 mps 636 mmHg 60%
    03:00 -8°C° 0 mm 2 mps 636 mmHg 59%
    04:00 -8°C° 0 mm 2 mps 636 mmHg 58%
    05:00 -8°C° 0 mm 2 mps 636 mmHg 57%
    06:00 -8°C° 0 mm 2 mps 637 mmHg 56%
    07:00 -7°C° 0 mm 2 mps 637 mmHg 56%
    08:00 -4°C° 0 mm 1 mps 638 mmHg 55%
    09:00 -3°C° 0 mm 1 mps 638 mmHg 55%
    10:00 -1°C° 0 mm 1 mps 639 mmHg 53%
    11:00 0°C° 0 mm 1 mps 639 mmHg 51%
    12:00 +2°C° 0 mm 1 mps 640 mmHg 49%
    13:00 +2°C° 0 mm 1 mps 639 mmHg 51%
    14:00 +2°C° 0 mm 1 mps 639 mmHg 53%
    15:00 +2°C° 0 mm 1 mps 639 mmHg 55%
    16:00 0°C° 0 mm 1 mps 639 mmHg 58%
    17:00 -3°C° 0 mm 0 mps 638 mmHg 60%
    18:00 -5°C° 0 mm 0 mps 638 mmHg 63%
    19:00 -5°C° 0 mm 0 mps 638 mmHg 63%
    20:00 -5°C° 0 mm 0 mps 638 mmHg 63%
    21:00 -5°C° 0 mm 0 mps 638 mmHg 63%
    22:00 -5°C° 0 mm 0 mps 638 mmHg 64%
    23:00 -5°C° 0 mm 0 mps 639 mmHg 65%
    Show more